[[{"header":{"parameterUnit":"m.s-1","parameterCategory":2,"la1":30.2991,"la2":30.254,"lo1":-89.0895,"lo2":-89.0444,"dy":0.0017,"dx":0.0017,"nx":28,"ny":28,"refTime":"2024-06-13T09:00:00:Z","depth":"0","parameterNumber":2,"parameterNumberName":"U-component_of_CURRENTS"},"data":[0,0,0,0,0,0,0,0,0,0,0,0,0,0,0,0,0,0,0,0,0,0,0,0,0,0,0,0,0,0,0,0,0,0,0,0,0,0,0,0,0,0,0,0,0,0,0,0,0,0,0,0,0,0,0,0,0,0,0.1988,0.199,0,0.2101,0.2102,0.2103,0.2157,0.2157,0.2158,0.2159,0.2238,0.224,0.2241,0,0,0,0,0,0,0,0,0,0,0,0,0,0.1764,0.1768,0.1988,0.199,0.1992,0.2101,0.2102,0.2103,0.2157,0.2157,0.2158,0.2159,0.2238,0.2239,0.2241,0,0,0,0,0,0,0,0,0,0,0,0,0,0.1861,0.1769,0.1988,0.2037,0.2044,0.2101,0.2102,0.2103,0.2157,0.2157,0.2158,0.2159,0.2237,0.2239,0.2242,0.2238,0,0,0.2249,0.225,0,0,0,0,0,0,0,0,0.1856,0.1868,0.2028,0.2034,0.2041,0.2122,0.2053,0.2149,0.2156,0.2106,0.2159,0.216,0.22,0.2206,0.2215,0.2242,0.2245,0.2249,0.225,0.2251,0.2252,0,0,0,0,0,0,0,0.1849,0.1864,0.2026,0.203,0.2038,0.2036,0.205,0.207,0.2141,0.2111,0.2117,0.214,0.2203,0.2213,0.2218,0.2246,0.2249,0.2251,0.2252,0.2253,0.2295,0.2295,0,0,0,0,0,0,0.1852,0.1858,0.2022,0.203,0.1957,0.204,0.2056,0.2089,0.2141,0.2153,0.2139,0.2142,0.2208,0.2215,0.2221,0.2224,0.2251,0.2254,0.2255,0.2296,0.2295,0.2295,0,0,0,0,0,0,0.1847,0.1866,0.2018,0.1951,0.1971,0.2044,0.2081,0.2091,0.2102,0.2165,0.2174,0.214,0.2209,0.2217,0.2233,0.2228,0.2255,0.2257,0.2296,0.2296,0.2295,0.2228,0,0,0,0,0,0,0.184,0.1863,0.1867,0.1952,0.1975,0.2041,0.2081,0.2093,0.2118,0.2123,0.2168,0.2177,0.2211,0.2229,0.2235,0.2231,0.2259,0.2296,0.2296,0.2295,0.2231,0.2225,0.2221,0,0,0,0,0,0.1831,0.1837,0.1866,0.1886,0.1986,0.2041,0.205,0.21,0.2117,0.2112,0.2146,0.2175,0.2231,0.223,0.2238,0.2234,0.2297,0.2296,0.2295,0.2233,0.2226,0.2221,0,0,0,0,0,0,0.1731,0.1847,0.188,0.1918,0.1971,0.2052,0.2054,0.209,0.2113,0.2114,0.2165,0.2176,0.2196,0.2218,0.2216,0.2246,0.2271,0.2271,0.2221,0.2215,0.221,0.2201,0.226,0,0,0,0,0,0.1715,0.1754,0.1853,0.1875,0.1904,0.1974,0.1996,0.2035,0.2081,0.2092,0.2129,0.2165,0.2198,0.2207,0.2242,0.2243,0.2262,0.2249,0.2244,0.224,0.2237,0.2253,0.2249,0.2293,0.2293,0.2293,0,0,0.1684,0.1749,0.1771,0.1856,0.19,0.1936,0.1987,0.2021,0.2042,0.2095,0.2114,0.2152,0.2197,0.2213,0.2223,0.2228,0.2235,0.2239,0.2235,0.2235,0.2252,0.2247,0.2243,0.2292,0.2293,0.2293,0,0,0.1639,0.1697,0.1715,0.1763,0.1838,0.1888,0.1896,0.1975,0.1997,0.2024,0.2074,0.2097,0.2144,0.2175,0.2196,0.2179,0.2217,0.2198,0.2155,0.2169,0.2166,0.2163,0.2171,0.2169,0.2186,0.2185,0.2185,0,0.1594,0.1644,0.1719,0.1749,0.1786,0.1865,0.1885,0.1919,0.1988,0.1999,0.202,0.2091,0.2126,0.2149,0.215,0.2167,0.2184,0.2171,0.2162,0.2159,0.2157,0.2166,0.2165,0.2182,0.2182,0.2183,0.2183,0,0.1576,0.1611,0.1621,0.1698,0.1734,0.1763,0.1841,0.1861,0.19,0.1941,0.1972,0.202,0.2061,0.2078,0.2111,0.2119,0.2138,0.2159,0.2172,0.2148,0.216,0.216,0.2177,0.2179,0.2179,0.218,0,0,0.1509,0.1593,0.1596,0.1623,0.1715,0.1746,0.1772,0.1823,0.1834,0.1885,0.1897,0.1952,0.1982,0.2009,0.2053,0.2064,0.2062,0.2102,0.2104,0.2102,0.2092,0.2054,0.205,0.2085,0.2085,0.2085,0.2102,0,0.1476,0.1505,0.1563,0.1589,0.1621,0.1694,0.1715,0.1764,0.1804,0.183,0.1877,0.1911,0.1956,0.1975,0.1992,0.206,0.2062,0.2056,0.2123,0.2125,0.2087,0.2049,0.1929,0.193,0.2102,0.2102,0.2102,0,0.1456,0.1481,0.1493,0.1556,0.1574,0.1594,0.1643,0.1673,0.1725,0.1754,0.1789,0.1841,0.1879,0.1916,0.1988,0.1986,0.2028,0.2069,0.2071,0.2059,0.2086,0.1985,0.1924,0.1802,0.2103,0.2103,0.2103,0,0.1393,0.1441,0.1443,0.1468,0.1542,0.1547,0.1583,0.1638,0.1658,0.1705,0.172,0.178,0.1812,0.1874,0.1961,0.1979,0.2033,0.2066,0.2064,0.2062,0.1985,0.1976,0.1806,0.2094,0.2094,0.2094,0.2094,0,0.1363,0.1372,0.1408,0.1419,0.1419,0.149,0.1494,0.1537,0.1583,0.16,0.1674,0.1696,0.1805,0.1857,0.1934,0.1991,0.2007,0.2045,0.2058,0.1958,0.1947,0.186,0.1828,0.2094,0.2094,0.2094,0.2094,0,0.1318,0.134,0.135,0.1388,0.1398,0.1398,0.1446,0.1452,0.1504,0.1527,0.1541,0.1631,0.1701,0.1794,0.1895,0.1945,0.1931,0.2022,0.1892,0.1889,0.1776,0.1747,0.1612,0.1598,0.2022,0.2021,0.202,0,0.1296,0.1296,0.1312,0.1304,0.132,0.133,0.1341,0.1403,0.1417,0.1488,0.1494,0.1563,0.1609,0.1728,0.1817,0.1908,0.1865,0.1852,0.1861,0.1728,0.1707,0.1664,0.1662,0.1733,0.173,0.1728,0.1726,0,0.1255,0.1255,0.1254,0.1237,0.1234,0.1246,0.1267,0.1268,0.1341,0.1362,0.1403,0.1439,0.1546,0.1573,0.1681,0.1748,0.1708,0.1804,0.1693,0.1476,0.1392,0.1399,0.1767,0.1703,0.1705,0.1707,0.1708,0.1709,0.1204,0.1184,0.1169,0.115,0.1154,0.1155,0.1131,0.117,0.1182,0.1189,0.1276,0.1265,0.1326,0.1462,0.1525,0.1481,0.1568,0.144,0.1422,0.1396,0.1343,0.1657,0.1595,0.1596,0.1598,0.1599,0.16,0,0.1115,0.11,0.1085,0.1052,0.1027,0.1064,0.107,0.1033,0.1016,0.1041,0.1053,0.1016,0.1029,0.1092,0.11,0.1069,0.1101,0.1038,0.0923,0.0956,0.1235,0.1179,0.099,0.099,0.099,0.099,0.099,0.099,0.1059,0.1009,0.1001,0.0924,0.091,0.085,0.0834,0.0814,0.0806,0.0741,0.0682,0.0695,0.0692,0.0629,0.059,0.0636,0.0607,0.0562,0.0636,0.077,0.0805,0.0838,0.0774,0.0503,0.0502,0.0311,0.0309,0.0307]},{"header":{"parameterUnit":"m.s-1","parameterCategory":2,"la1":30.2991,"la2":30.254,"lo1":-89.0895,"lo2":-89.0444,"dy":0.0017,"dx":0.0017,"nx":28,"ny":28,"refTime":"2024-06-13T09:00:00:Z","depth":"0","parameterNumber":3,"parameterNumberName":"V-component_of_CURRENTS"},"data":[0,0,0,0,0,0,0,0,0,0,0,0,0,0,0,0,0,0,0,0,0,0,0,0,0,0,0,0,0,0,0,0,0,0,0,0,0,0,0,0,0,0,0,0,0,0,0,0,0,0,0,0,0,0,0,0,0,0,-0.0309,-0.0311,0,-0.0435,-0.0437,-0.0438,-0.0501,-0.0501,-0.0502,-0.0502,-0.0592,-0.0594,-0.0596,0,0,0,0,0,0,0,0,0,0,0,0,0,-0.0057,-0.0061,-0.0309,-0.0311,-0.0313,-0.0435,-0.0437,-0.0438,-0.0501,-0.0501,-0.0502,-0.0502,-0.0591,-0.0594,-0.0597,0,0,0,0,0,0,0,0,0,0,0,0,0,-0.0171,-0.0063,-0.0309,-0.0361,-0.0367,-0.0435,-0.0437,-0.0439,-0.0501,-0.0501,-0.0502,-0.0502,-0.0591,-0.0594,-0.0597,-0.061,0,0,-0.0607,-0.0608,0,0,0,0,0,0,0,0,-0.0164,-0.018,-0.0351,-0.0357,-0.0364,-0.0455,-0.0381,-0.0495,-0.0501,-0.0448,-0.0502,-0.0502,-0.0544,-0.0551,-0.0571,-0.0614,-0.0618,-0.0607,-0.0609,-0.0611,-0.0612,0,0,0,0,0,0,0,-0.0156,-0.0174,-0.0357,-0.0353,-0.0361,-0.0355,-0.0372,-0.0402,-0.049,-0.0452,-0.0458,-0.0475,-0.0547,-0.0568,-0.0574,-0.0619,-0.0607,-0.061,-0.0612,-0.0613,-0.0685,-0.0685,0,0,0,0,0,0,-0.015,-0.0168,-0.0353,-0.0361,-0.0266,-0.036,-0.0379,-0.0424,-0.0491,-0.0502,-0.0475,-0.0478,-0.0562,-0.057,-0.0577,-0.0596,-0.0611,-0.0614,-0.0616,-0.0685,-0.0685,-0.0685,0,0,0,0,0,0,-0.0144,-0.0166,-0.0348,-0.0266,-0.029,-0.0364,-0.0414,-0.0426,-0.0448,-0.0509,-0.0519,-0.0485,-0.0563,-0.0573,-0.0608,-0.06,-0.0615,-0.0618,-0.0685,-0.0685,-0.0685,-0.0634,0,0,0,0,0,0,-0.0137,-0.0164,-0.0182,-0.0267,-0.0294,-0.0384,-0.0414,-0.0428,-0.046,-0.0465,-0.0521,-0.053,-0.0564,-0.0603,-0.0611,-0.0605,-0.0621,-0.0685,-0.0685,-0.0685,-0.0636,-0.0632,-0.0629,0,0,0,0,0,-0.0128,-0.0153,-0.0183,-0.0204,-0.0322,-0.0384,-0.0397,-0.0448,-0.046,-0.0468,-0.0509,-0.0528,-0.0608,-0.0605,-0.0615,-0.061,-0.0685,-0.0685,-0.0685,-0.0637,-0.0633,-0.0629,0,0,0,0,0,0,-0.004,-0.0165,-0.0198,-0.0258,-0.0314,-0.0396,-0.0407,-0.0442,-0.0481,-0.0482,-0.0532,-0.0545,-0.0572,-0.0598,-0.0594,-0.063,-0.0647,-0.0649,-0.0608,-0.0604,-0.0601,-0.0585,-0.0623,0,0,0,0,0,-0.0033,-0.0092,-0.019,-0.023,-0.026,-0.033,-0.0357,-0.0395,-0.0447,-0.0465,-0.0507,-0.0546,-0.0579,-0.0597,-0.0631,-0.0651,-0.0658,-0.0653,-0.0649,-0.0646,-0.0641,-0.0648,-0.0644,-0.0684,-0.0685,-0.0685,0,0,-0.0004,-0.0082,-0.0112,-0.0215,-0.0262,-0.0307,-0.0347,-0.0388,-0.0416,-0.0467,-0.0504,-0.0537,-0.0583,-0.0609,-0.0622,-0.0629,-0.0636,-0.0646,-0.0643,-0.0639,-0.0647,-0.0643,-0.064,-0.0684,-0.0684,-0.0684,0,0,0.0019,-0.0051,-0.0093,-0.0145,-0.0225,-0.0273,-0.0283,-0.0365,-0.039,-0.0432,-0.0472,-0.0501,-0.0556,-0.0587,-0.0609,-0.0606,-0.0619,-0.0615,-0.0585,-0.0591,-0.0588,-0.0585,-0.0571,-0.0568,-0.0611,-0.0611,-0.0611,0,0.0067,-0.0024,-0.0103,-0.0152,-0.0189,-0.0257,-0.0289,-0.0327,-0.0404,-0.0418,-0.0434,-0.0508,-0.0545,-0.0575,-0.0576,-0.0598,-0.0596,-0.0595,-0.0585,-0.0583,-0.058,-0.0568,-0.0564,-0.0608,-0.0609,-0.0609,-0.0609,0,0.0044,-0.0017,-0.0037,-0.0136,-0.0174,-0.0212,-0.0282,-0.0308,-0.0341,-0.0381,-0.0414,-0.0465,-0.0506,-0.052,-0.055,-0.0554,-0.0555,-0.058,-0.0591,-0.0573,-0.0561,-0.0558,-0.0605,-0.0606,-0.0607,-0.0607,0,0,0.0112,-0.0028,-0.0036,-0.0075,-0.0172,-0.0204,-0.0238,-0.0293,-0.0303,-0.0357,-0.0369,-0.0427,-0.0447,-0.0472,-0.0508,-0.0515,-0.0497,-0.0535,-0.0536,-0.0512,-0.0491,-0.045,-0.0443,-0.0516,-0.0516,-0.0516,-0.0483,0,0.0119,0.0034,-0.0038,-0.0088,-0.0133,-0.0194,-0.0218,-0.0262,-0.0297,-0.0321,-0.0362,-0.0389,-0.0431,-0.0441,-0.0456,-0.0493,-0.0489,-0.0502,-0.052,-0.052,-0.0479,-0.0439,-0.0365,-0.0326,-0.048,-0.048,-0.0479,0,0.0111,0.0048,-0.0006,-0.0083,-0.0102,-0.0126,-0.0167,-0.0199,-0.0241,-0.0262,-0.0291,-0.0329,-0.0356,-0.0387,-0.0425,-0.043,-0.0451,-0.0473,-0.0473,-0.0451,-0.0474,-0.0374,-0.0316,-0.0288,-0.0475,-0.0476,-0.0476,0,0.0176,0.0077,0.0036,0.0005,-0.0088,-0.0094,-0.0128,-0.0172,-0.0187,-0.0218,-0.022,-0.0269,-0.0282,-0.0322,-0.0375,-0.0397,-0.04,-0.044,-0.0418,-0.0415,-0.0364,-0.0357,-0.0274,-0.0449,-0.0449,-0.0449,-0.0449,0,0.0192,0.0163,0.0066,0.0042,0.0022,-0.0045,-0.0051,-0.0086,-0.0117,-0.0122,-0.0179,-0.018,-0.0265,-0.0287,-0.034,-0.0356,-0.0372,-0.0395,-0.04,-0.0343,-0.0335,-0.0321,-0.0323,-0.0448,-0.0448,-0.0448,-0.0449,0,0.0262,0.0187,0.0145,0.0066,0.0045,0.004,-0.0011,-0.0016,-0.0045,-0.0048,-0.0052,-0.0104,-0.0131,-0.02,-0.0258,-0.0297,-0.0285,-0.0331,-0.0245,-0.0241,-0.0201,-0.0204,-0.0104,-0.0072,-0.0298,-0.0296,-0.0295,0,0.0276,0.0263,0.0187,0.0165,0.0129,0.0103,0.0082,0.0029,0.0021,0.0001,0.0008,-0.0014,-0.0031,-0.0085,-0.0149,-0.0203,-0.0209,-0.0168,-0.0203,-0.0164,-0.0172,-0.0156,-0.0135,-0.0111,-0.0109,-0.0107,-0.0105,0,0.0327,0.0314,0.028,0.0237,0.0209,0.0171,0.0141,0.0144,0.0094,0.0097,0.0099,0.009,0.0051,0.0033,-0.0027,-0.0068,-0.0094,-0.0127,-0.0111,-0.0025,0.0023,0.004,-0.0162,-0.0087,-0.0089,-0.009,-0.0091,-0.0092,0.0379,0.0381,0.0343,0.031,0.0273,0.024,0.0227,0.0202,0.0197,0.0191,0.0183,0.0183,0.0183,0.0109,0.0072,0.0073,0.0032,0.0069,0.0062,0.0074,0.0119,-0.0028,0.005,0.0049,0.0048,0.0047,0.0047,0,0.042,0.0422,0.0407,0.0357,0.0337,0.0295,0.026,0.0247,0.025,0.025,0.0255,0.0284,0.0303,0.0269,0.0265,0.0263,0.0256,0.0264,0.03,0.0305,0.0161,0.0182,0.0322,0.0322,0.0322,0.0322,0.0322,0.0322,0.0432,0.0443,0.0438,0.042,0.0391,0.0353,0.0335,0.0315,0.0303,0.0307,0.0317,0.0319,0.0337,0.041,0.0427,0.0417,0.0432,0.0462,0.0428,0.0316,0.0297,0.0278,0.0298,0.0461,0.0461,0.0613,0.0614,0.0615]}],[{"header":{"parameterUnit":"m.s-1","parameterCategory":2,"la1":30.2991,"la2":30.254,"lo1":-89.0895,"lo2":-89.0444,"dy":0.0017,"dx":0.0017,"nx":28,"ny":28,"refTime":"2024-06-13T09:00:00:Z","depth":"2","parameterNumber":2,"parameterNumberName":"U-component_of_CURRENTS"},"data":[0,0,0,0,0,0,0,0,0,0,0,0,0,0,0,0,0,0,0,0,0,0,0,0,0,0,0,0,0,0,0,0,0,0,0,0,0,0,0,0,0,0,0,0,0,0,0,0,0,0,0,0,0,0,0,0,0,0,0.1252,0.1251,0,0.1238,0.1239,0.1239,0.1301,0.1302,0.1303,0.1304,0.1263,0.1261,0.1259,0,0,0,0,0,0,0,0,0,0,0,0,0,0.1385,0.1383,0.1252,0.1251,0.125,0.1238,0.1239,0.1239,0.1301,0.1302,0.1303,0.1304,0.1263,0.1261,0.1259,0,0,0,0,0,0,0,0,0,0,0,0,0,0.1354,0.1382,0.1252,0.1272,0.1273,0.1238,0.1239,0.1239,0.13,0.1302,0.1303,0.1305,0.1264,0.1261,0.1258,0.1212,0,0,0.1249,0.1248,0,0,0,0,0,0,0,0,0.1355,0.135,0.127,0.127,0.1271,0.1264,0.127,0.1226,0.13,0.13,0.1304,0.1305,0.1254,0.1252,0.126,0.121,0.1208,0.1249,0.1247,0.1246,0.1245,0,0,0,0,0,0,0,0.1357,0.1351,0.1256,0.1269,0.1269,0.1299,0.1297,0.1263,0.1276,0.13,0.1302,0.1285,0.1255,0.1262,0.1259,0.1208,0.1249,0.1247,0.1245,0.1244,0.1197,0.1198,0,0,0,0,0,0,0.1335,0.1352,0.1256,0.1254,0.1307,0.1295,0.1293,0.1273,0.1277,0.1276,0.1284,0.1288,0.1267,0.1262,0.1257,0.1271,0.1246,0.1243,0.1242,0.1197,0.1197,0.1198,0,0,0,0,0,0,0.1338,0.1327,0.1256,0.1296,0.1288,0.129,0.1268,0.1272,0.1313,0.1263,0.1265,0.1324,0.1268,0.1262,0.1264,0.1267,0.1242,0.1239,0.1196,0.1197,0.1197,0.1252,0,0,0,0,0,0,0.1342,0.1328,0.1329,0.1294,0.1285,0.1255,0.1265,0.127,0.1294,0.13,0.1297,0.1293,0.1268,0.1269,0.1262,0.1262,0.1237,0.1195,0.1196,0.1197,0.125,0.1255,0.1259,0,0,0,0,0,0.1347,0.1336,0.1329,0.1318,0.1278,0.1255,0.1255,0.1267,0.1295,0.1313,0.132,0.1295,0.127,0.1268,0.1258,0.1258,0.1195,0.1196,0.1197,0.1247,0.1254,0.1259,0,0,0,0,0,0,0.1377,0.1338,0.1331,0.1304,0.1288,0.1262,0.1269,0.1286,0.1309,0.1325,0.1302,0.1298,0.1296,0.1273,0.1272,0.1249,0.1227,0.1226,0.1268,0.1273,0.1278,0.1298,0.1235,0,0,0,0,0,0.1381,0.1381,0.1334,0.1318,0.1303,0.1297,0.1297,0.1308,0.1306,0.1322,0.1314,0.1305,0.1286,0.1282,0.1258,0.1247,0.125,0.1241,0.1245,0.125,0.126,0.1273,0.128,0.1202,0.1202,0.1202,0,0,0.138,0.1365,0.136,0.1328,0.1313,0.129,0.1305,0.1308,0.131,0.1306,0.1322,0.1318,0.1288,0.1278,0.1275,0.1266,0.1277,0.1251,0.1255,0.1263,0.1275,0.1283,0.129,0.1203,0.1202,0.1202,0,0,0.1377,0.1366,0.1361,0.1347,0.1329,0.1317,0.1325,0.1314,0.1336,0.1343,0.1341,0.1353,0.1322,0.1309,0.1294,0.1309,0.1299,0.1299,0.134,0.1352,0.1359,0.1365,0.1396,0.1405,0.1304,0.1304,0.1304,0,0.1372,0.1359,0.1357,0.1341,0.1326,0.1329,0.1312,0.1319,0.1324,0.1341,0.1354,0.135,0.1332,0.1322,0.134,0.1318,0.1338,0.1321,0.136,0.1366,0.1371,0.1401,0.141,0.1307,0.1307,0.1307,0.1306,0,0.1359,0.1349,0.1339,0.1319,0.1314,0.1301,0.1287,0.131,0.1338,0.1346,0.1371,0.1367,0.1371,0.1364,0.136,0.1384,0.1392,0.1363,0.1349,0.1382,0.1412,0.142,0.1311,0.131,0.1309,0.1309,0,0,0.1317,0.1328,0.132,0.1321,0.1306,0.1295,0.1302,0.1304,0.1328,0.1351,0.1382,0.138,0.1412,0.14,0.1399,0.1423,0.1487,0.1428,0.1427,0.1466,0.1545,0.148,0.1483,0.1476,0.1477,0.1478,0.1558,0,0.1295,0.1286,0.1294,0.1276,0.1263,0.1275,0.1279,0.1298,0.1328,0.136,0.1382,0.1401,0.141,0.1434,0.1461,0.1475,0.1509,0.147,0.1501,0.1502,0.1445,0.1489,0.1264,0.131,0.1566,0.1567,0.1568,0,0.1263,0.1271,0.1257,0.1277,0.1268,0.1263,0.1292,0.1302,0.1344,0.1373,0.1415,0.1437,0.1482,0.1481,0.1543,0.1526,0.1553,0.1565,0.1567,0.1492,0.1451,0.1313,0.1315,0.1581,0.158,0.1579,0.1578,0,0.1245,0.1238,0.1241,0.1236,0.1248,0.1262,0.1279,0.1316,0.1329,0.1394,0.1415,0.1473,0.15,0.1547,0.159,0.1582,0.1656,0.163,0.1595,0.1592,0.1397,0.1373,0.1676,0.1676,0.1676,0.1676,0.1675,0,0.1214,0.1209,0.1237,0.123,0.1237,0.1263,0.1279,0.1311,0.1351,0.1359,0.1428,0.1444,0.1522,0.1569,0.1611,0.1633,0.167,0.1619,0.1607,0.141,0.1388,0.161,0.1601,0.1679,0.1678,0.1677,0.1677,0,0.1178,0.1197,0.1192,0.1216,0.1224,0.1232,0.1255,0.1269,0.1322,0.1338,0.1359,0.1433,0.1501,0.1569,0.1644,0.1637,0.1674,0.1668,0.1447,0.1407,0.1604,0.1597,0.1649,0.1647,0.1646,0.1645,0.1644,0,0.1151,0.1152,0.1168,0.1162,0.1168,0.1185,0.1192,0.1245,0.1257,0.1314,0.1316,0.1399,0.1415,0.151,0.1516,0.1567,0.1655,0.1409,0.1336,0.1618,0.1602,0.1597,0.1592,0.1113,0.1108,0.1104,0.11,0,0.1093,0.1105,0.1102,0.1099,0.1101,0.1104,0.1129,0.113,0.1187,0.1192,0.1214,0.1234,0.1295,0.123,0.13,0.131,0.1384,0.1324,0.1664,0.1151,0.1118,0.11,0.1112,0.1062,0.1066,0.1069,0.1071,0.1072,0.103,0.1016,0.1017,0.1002,0.1015,0.1019,0.0992,0.1021,0.1015,0.0993,0.1068,0.1013,0.1025,0.0995,0.1015,0.1046,0.1156,0.1099,0.111,0.1126,0.1046,0.1011,0.0923,0.0926,0.0928,0.093,0.0932,0,0.0918,0.0923,0.0917,0.0896,0.0877,0.0921,0.0928,0.0883,0.0839,0.0827,0.0803,0.0682,0.0617,0.0691,0.063,0.0669,0.0663,0.0686,0.0624,0.0659,0.0691,0.0589,0.0345,0.0344,0.0343,0.0343,0,0,0.0859,0.0817,0.0818,0.0751,0.0747,0.0696,0.068,0.0646,0.0615,0.0539,0.0466,0.0469,0.0529,0.0372,0.0387,0.0343,0.0507,0.0337,0.0783,0.0733,0.0764,0.0882,0.0758,0,0,0,0,0]},{"header":{"parameterUnit":"m.s-1","parameterCategory":2,"la1":30.2991,"la2":30.254,"lo1":-89.0895,"lo2":-89.0444,"dy":0.0017,"dx":0.0017,"nx":28,"ny":28,"refTime":"2024-06-13T09:00:00:Z","depth":"2","parameterNumber":3,"parameterNumberName":"V-component_of_CURRENTS"},"data":[0,0,0,0,0,0,0,0,0,0,0,0,0,0,0,0,0,0,0,0,0,0,0,0,0,0,0,0,0,0,0,0,0,0,0,0,0,0,0,0,0,0,0,0,0,0,0,0,0,0,0,0,0,0,0,0,0,0,0.0179,0.0178,0,0.0041,0.0039,0.0037,-0.0061,-0.0061,-0.0061,-0.0061,-0.0096,-0.0097,-0.0098,0,0,0,0,0,0,0,0,0,0,0,0,0,0.0204,0.0204,0.0179,0.0178,0.0177,0.0041,0.0039,0.0036,-0.0061,-0.0061,-0.0061,-0.0061,-0.0096,-0.0097,-0.0098,0,0,0,0,0,0,0,0,0,0,0,0,0,0.0136,0.0204,0.0179,0.0117,0.0111,0.0042,0.0039,0.0036,-0.0061,-0.0061,-0.0061,-0.0061,-0.0095,-0.0097,-0.0098,-0.0102,0,0,-0.0101,-0.0102,0,0,0,0,0,0,0,0,0.014,0.0134,0.0127,0.0121,0.0114,0.0013,0.0035,-0.0003,-0.0061,-0.0003,-0.0061,-0.0061,-0.0045,-0.005,-0.0088,-0.0103,-0.0105,-0.0102,-0.0102,-0.0103,-0.0103,0,0,0,0,0,0,0,0.0145,0.0139,0.0117,0.0126,0.0118,0.0044,0.0035,0.0026,-0.0025,-0.0008,-0.0014,-0.0018,-0.0049,-0.0086,-0.0089,-0.0105,-0.0102,-0.0103,-0.0103,-0.0104,-0.0148,-0.0149,0,0,0,0,0,0,0.0185,0.0144,0.0122,0.0114,0.0135,0.0045,0.0034,0.004,-0.0027,-0.0037,-0.0017,-0.0022,-0.0084,-0.0087,-0.009,-0.0114,-0.0103,-0.0104,-0.0105,-0.0148,-0.0148,-0.0149,0,0,0,0,0,0,0.0186,0.0185,0.0127,0.013,0.0119,0.0047,0.0053,0.0038,-0.0021,-0.0034,-0.0043,-0.0061,-0.0084,-0.0088,-0.0113,-0.0115,-0.0104,-0.0106,-0.0147,-0.0148,-0.0148,-0.015,0,0,0,0,0,0,0.0188,0.0186,0.0182,0.0134,0.0121,0.0075,0.0053,0.0035,-0.0018,-0.0026,-0.0073,-0.0076,-0.0085,-0.0112,-0.0115,-0.0116,-0.0107,-0.0147,-0.0147,-0.0148,-0.0149,-0.0151,-0.0152,0,0,0,0,0,0.0189,0.0187,0.0183,0.0179,0.0125,0.0075,0.0059,0.0002,-0.0019,-0.0052,-0.0078,-0.0076,-0.0119,-0.0113,-0.0117,-0.0118,-0.0146,-0.0147,-0.0148,-0.0149,-0.015,-0.0152,0,0,0,0,0,0,0.0201,0.0177,0.017,0.0164,0.0122,0.0061,0.003,-0.0008,-0.0062,-0.0066,-0.0087,-0.0092,-0.011,-0.0118,-0.0111,-0.0134,-0.013,-0.0132,-0.0129,-0.0131,-0.0132,-0.0131,-0.0108,0,0,0,0,0,0.0207,0.0184,0.0164,0.0147,0.014,0.0081,0.0048,0.0012,-0.0029,-0.0057,-0.0085,-0.0105,-0.0116,-0.0127,-0.0138,-0.0156,-0.0156,-0.0158,-0.0159,-0.016,-0.0162,-0.0165,-0.0166,-0.0152,-0.0152,-0.0152,0,0,0.0207,0.0187,0.0175,0.0145,0.0112,0.0093,0.0057,0.0011,-0.0018,-0.0044,-0.0094,-0.011,-0.0121,-0.0139,-0.0148,-0.0148,-0.0165,-0.0161,-0.0162,-0.0163,-0.0166,-0.0168,-0.0169,-0.0153,-0.0153,-0.0152,0,0,0.019,0.0186,0.0165,0.0142,0.0102,0.0075,0.0064,0.0008,-0.0029,-0.0071,-0.0088,-0.0109,-0.0142,-0.0149,-0.0154,-0.0168,-0.0168,-0.0173,-0.0182,-0.0185,-0.0186,-0.0187,-0.0188,-0.0189,-0.0177,-0.0177,-0.0177,0,0.0203,0.0171,0.0146,0.0131,0.0114,0.0075,0.0058,0.0022,-0.0045,-0.0066,-0.0081,-0.0132,-0.0142,-0.0153,-0.0165,-0.0169,-0.0175,-0.0174,-0.0186,-0.0187,-0.0187,-0.0188,-0.0189,-0.0177,-0.0177,-0.0177,-0.0177,0,0.0168,0.0152,0.0142,0.0116,0.0092,0.0067,0.0046,0.0008,-0.0029,-0.0063,-0.0098,-0.0123,-0.0153,-0.0157,-0.0169,-0.0181,-0.0185,-0.0183,-0.018,-0.0189,-0.0189,-0.019,-0.0177,-0.0177,-0.0177,-0.0177,0,0,0.0205,0.0133,0.0134,0.0117,0.0085,0.0066,0.0039,0.0002,-0.0019,-0.007,-0.01,-0.0128,-0.0151,-0.0159,-0.0173,-0.0183,-0.0195,-0.0195,-0.0195,-0.0191,-0.0208,-0.0153,-0.0149,-0.0201,-0.0201,-0.0201,-0.0205,0,0.0195,0.0147,0.0118,0.0091,0.0077,0.0052,0.003,-0.0005,-0.0041,-0.0074,-0.0096,-0.0123,-0.0146,-0.0164,-0.0178,-0.019,-0.0199,-0.0195,-0.0203,-0.0203,-0.015,-0.0148,-0.011,-0.0104,-0.0205,-0.0206,-0.0206,0,0.0192,0.015,0.0115,0.0072,0.007,0.0054,0.002,-0.0008,-0.0044,-0.007,-0.01,-0.0123,-0.0148,-0.0161,-0.0191,-0.0192,-0.0205,-0.0211,-0.0211,-0.016,-0.015,-0.0112,-0.0102,-0.0207,-0.0207,-0.0207,-0.0207,0,0.0219,0.0167,0.0128,0.0117,0.0066,0.005,0.0025,-0.0011,-0.0023,-0.0065,-0.007,-0.0115,-0.0126,-0.0157,-0.0185,-0.0195,-0.0205,-0.0212,-0.0172,-0.0169,-0.0136,-0.0128,-0.0226,-0.0226,-0.0226,-0.0226,-0.0226,0,0.0233,0.0214,0.0135,0.0123,0.0096,0.0059,0.0041,0.0011,-0.0014,-0.0011,-0.0065,-0.006,-0.0127,-0.0144,-0.0177,-0.0173,-0.0198,-0.017,-0.0163,-0.0135,-0.0127,-0.0218,-0.0217,-0.0226,-0.0226,-0.0226,-0.0226,0,0.0288,0.0226,0.0197,0.013,0.0111,0.01,0.0067,0.0055,0.0026,0.0032,0.0024,-0.0017,-0.0039,-0.0091,-0.0131,-0.0142,-0.0155,-0.0146,-0.0106,-0.0093,-0.0122,-0.0121,-0.0104,-0.0102,-0.01,-0.0099,-0.0098,0,0.0302,0.029,0.0224,0.0205,0.0178,0.0147,0.0127,0.0083,0.008,0.0073,0.0086,0.006,0.0066,0.0028,-0.0008,-0.0042,-0.0097,-0.0031,-0.0033,-0.0113,-0.0109,-0.0111,-0.0112,0.0001,0.0003,0.0005,0.0006,0,0.0354,0.0339,0.0312,0.0268,0.0239,0.0211,0.0181,0.0188,0.0152,0.0164,0.0181,0.0188,0.0169,0.0151,0.0106,0.0084,-0.0025,0.0003,-0.0095,-0.0024,-0.0011,-0.0007,-0.0013,0.002,0.0019,0.0018,0.0017,0.0016,0.0404,0.0407,0.0368,0.0339,0.0304,0.0275,0.0263,0.0246,0.0252,0.0256,0.0265,0.0271,0.0253,0.0214,0.0181,0.0122,0.0115,0.008,0.0074,0.0066,0.009,0.0107,0.0164,0.0163,0.0163,0.0162,0.0162,0,0.0442,0.0445,0.0433,0.0386,0.0367,0.0327,0.0298,0.0286,0.0298,0.0302,0.0319,0.0313,0.0321,0.026,0.0221,0.0211,0.018,0.0173,0.0133,0.0123,0.0112,0.0135,0.0222,0.0222,0.0221,0.0221,0,0,0.0451,0.0463,0.0459,0.0446,0.0419,0.0381,0.0364,0.0345,0.0332,0.033,0.0323,0.0349,0.0325,0.0294,0.0278,0.0242,0.0174,0.0231,0.0195,0.0144,0.0132,0.0085,0.0113,0,0,0,0,0]}],[{"header":{"parameterUnit":"m.s-1","parameterCategory":2,"la1":30.2991,"la2":30.254,"lo1":-89.0895,"lo2":-89.0444,"dy":0.0017,"dx":0.0017,"nx":28,"ny":28,"refTime":"2024-06-13T09:00:00:Z","depth":"4","parameterNumber":2,"parameterNumberName":"U-component_of_CURRENTS"},"data":[0,0,0,0,0,0,0,0,0,0,0,0,0,0,0,0,0,0,0,0,0,0,0,0,0,0,0,0,0,0,0,0,0,0,0,0,0,0,0,0,0,0,0,0,0,0,0,0,0,0,0,0,0,0,0,0,0,0,-0.0453,-0.0453,0,-0.0478,-0.0478,-0.0478,-0.0488,-0.0488,-0.0488,-0.0488,-0.0596,-0.0599,-0.0602,0,0,0,0,0,0,0,0,0,0,0,0,0,-0.0411,-0.0412,-0.0453,-0.0453,-0.0453,-0.0478,-0.0478,-0.0478,-0.0488,-0.0488,-0.0488,-0.0488,-0.0595,-0.0599,-0.0602,0,0,0,0,0,0,0,0,0,0,0,0,0,-0.0432,-0.0412,-0.0453,-0.0461,-0.0462,-0.0478,-0.0478,-0.0479,-0.0488,-0.0488,-0.0488,-0.0488,-0.0594,-0.0598,-0.0603,-0.0634,0,0,-0.0617,-0.0619,0,0,0,0,0,0,0,0,-0.0431,-0.0434,-0.0459,-0.046,-0.0461,-0.0479,-0.0503,-0.0534,-0.0489,-0.0479,-0.0488,-0.0488,-0.0565,-0.0571,-0.0576,-0.0639,-0.0644,-0.0617,-0.062,-0.0622,-0.0623,0,0,0,0,0,0,0,-0.043,-0.0433,-0.0463,-0.046,-0.0461,-0.0462,-0.0465,-0.0509,-0.0525,-0.048,-0.048,-0.0482,-0.0566,-0.0572,-0.0579,-0.0645,-0.0617,-0.0621,-0.0624,-0.0625,-0.0807,-0.0809,0,0,0,0,0,0,-0.0426,-0.0432,-0.0463,-0.0464,-0.0445,-0.0463,-0.0466,-0.0474,-0.0522,-0.0529,-0.0482,-0.0483,-0.0564,-0.0574,-0.0583,-0.0635,-0.0622,-0.0626,-0.0628,-0.0805,-0.0807,-0.081,0,0,0,0,0,0,-0.0425,-0.0429,-0.0462,-0.0447,-0.0452,-0.0464,-0.0473,-0.0475,-0.0497,-0.0523,-0.0531,-0.0504,-0.0564,-0.0577,-0.0648,-0.0639,-0.0628,-0.0632,-0.0802,-0.0806,-0.0809,-0.0732,0,0,0,0,0,0,-0.0424,-0.0428,-0.0435,-0.0447,-0.0452,-0.0488,-0.0473,-0.0475,-0.0497,-0.0498,-0.0544,-0.0553,-0.0565,-0.0642,-0.0653,-0.0645,-0.0635,-0.08,-0.0804,-0.0808,-0.0731,-0.0732,-0.0732,0,0,0,0,0,-0.0422,-0.0438,-0.0436,-0.0439,-0.0461,-0.0489,-0.0493,-0.05,-0.0498,-0.0518,-0.0554,-0.0552,-0.0675,-0.0647,-0.066,-0.0653,-0.0798,-0.0803,-0.0807,-0.0731,-0.0732,-0.0732,0,0,0,0,0,0,-0.0428,-0.044,-0.0438,-0.0457,-0.0478,-0.0491,-0.0509,-0.0513,-0.0554,-0.0557,-0.0583,-0.0596,-0.0653,-0.0685,-0.0654,-0.0725,-0.0735,-0.0743,-0.0673,-0.0674,-0.0674,-0.0605,-0.0639,0,0,0,0,0,-0.043,-0.0447,-0.0458,-0.0479,-0.0488,-0.0501,-0.0514,-0.0517,-0.055,-0.0566,-0.0592,-0.0636,-0.0681,-0.0704,-0.0751,-0.0793,-0.0792,-0.0802,-0.0802,-0.0802,-0.076,-0.078,-0.0776,-0.0826,-0.0825,-0.0825,0,0,-0.044,-0.0449,-0.046,-0.0482,-0.0497,-0.0513,-0.051,-0.0535,-0.0547,-0.0575,-0.0611,-0.0643,-0.07,-0.0738,-0.0766,-0.0762,-0.0793,-0.0808,-0.0806,-0.0763,-0.0784,-0.0779,-0.0773,-0.0829,-0.0828,-0.0828,0,0,-0.0463,-0.0477,-0.0491,-0.0511,-0.0529,-0.0535,-0.0547,-0.0563,-0.0572,-0.0599,-0.0631,-0.0668,-0.0719,-0.0756,-0.0781,-0.0825,-0.0801,-0.0838,-0.0765,-0.0786,-0.078,-0.0775,-0.0768,-0.0762,-0.0827,-0.0827,-0.0827,0,-0.0466,-0.0483,-0.0504,-0.0522,-0.053,-0.0548,-0.0558,-0.058,-0.0614,-0.0613,-0.0604,-0.0669,-0.0722,-0.077,-0.076,-0.0819,-0.0801,-0.0747,-0.0778,-0.0773,-0.0769,-0.0763,-0.0758,-0.0824,-0.0824,-0.0824,-0.0825,0,-0.0492,-0.0508,-0.0525,-0.0545,-0.0564,-0.0581,-0.06,-0.0612,-0.0602,-0.0602,-0.0626,-0.0674,-0.0684,-0.0727,-0.0735,-0.0742,-0.0729,-0.0777,-0.0755,-0.0757,-0.0754,-0.0749,-0.0819,-0.082,-0.0821,-0.0822,0,0,-0.0481,-0.0525,-0.0537,-0.0533,-0.0568,-0.058,-0.0604,-0.0612,-0.0611,-0.0612,-0.0597,-0.0645,-0.0613,-0.064,-0.0675,-0.0684,-0.0644,-0.0675,-0.0678,-0.0626,-0.0636,-0.0577,-0.0567,-0.0667,-0.0667,-0.0666,-0.0644,0,-0.0483,-0.0518,-0.0538,-0.0557,-0.056,-0.0576,-0.0591,-0.0604,-0.0602,-0.06,-0.0616,-0.0612,-0.0603,-0.0574,-0.0579,-0.0646,-0.0626,-0.0642,-0.0676,-0.0677,-0.059,-0.0559,-0.0663,-0.0641,-0.064,-0.0639,-0.0638,0,-0.0491,-0.0502,-0.0518,-0.0527,-0.053,-0.0522,-0.0521,-0.0532,-0.0547,-0.0534,-0.0505,-0.0516,-0.051,-0.0507,-0.0534,-0.0524,-0.053,-0.0579,-0.0581,-0.0536,-0.0609,-0.0646,-0.0631,-0.0631,-0.0632,-0.0632,-0.0633,0,-0.0464,-0.0489,-0.0491,-0.05,-0.0512,-0.048,-0.0461,-0.0478,-0.0481,-0.0451,-0.0442,-0.044,-0.0426,-0.0434,-0.0492,-0.0477,-0.0548,-0.0572,-0.0527,-0.0525,-0.0616,-0.0622,-0.0558,-0.0558,-0.0558,-0.0558,-0.0558,0,-0.0446,-0.0457,-0.0453,-0.0452,-0.0402,-0.0412,-0.0362,-0.0357,-0.0357,-0.0372,-0.0356,-0.0377,-0.0393,-0.0449,-0.0474,-0.048,-0.0524,-0.0473,-0.0503,-0.059,-0.0594,-0.0612,-0.0619,-0.0557,-0.0557,-0.0557,-0.0557,0,-0.0431,-0.0446,-0.0432,-0.0411,-0.0381,-0.0326,-0.0272,-0.0262,-0.0252,-0.0269,-0.0242,-0.0302,-0.0329,-0.0399,-0.0464,-0.0456,-0.0497,-0.0497,-0.0569,-0.0612,-0.0447,-0.0451,-0.0376,-0.0373,-0.0371,-0.0369,-0.0368,0,-0.0415,-0.0414,-0.0395,-0.0339,-0.0301,-0.0219,-0.0181,-0.0173,-0.0193,-0.0252,-0.0285,-0.0297,-0.0335,-0.0375,-0.0438,-0.0455,-0.0465,-0.0453,-0.0414,-0.0384,-0.0423,-0.043,-0.0437,-0.0365,-0.0364,-0.0363,-0.0363,0,-0.0367,-0.0385,-0.0385,-0.0294,-0.0214,-0.0174,-0.0125,-0.0141,-0.0181,-0.0194,-0.0255,-0.0256,-0.0306,-0.0333,-0.0351,-0.0388,-0.0439,-0.043,-0.0433,-0.0395,-0.037,-0.0412,-0.0421,-0.0355,-0.0357,-0.0357,-0.0358,0,-0.0317,-0.0322,-0.0324,-0.0231,-0.016,-0.0135,-0.0124,-0.0136,-0.0148,-0.023,-0.0258,-0.0298,-0.0322,-0.0303,-0.0359,-0.0341,-0.0298,-0.0267,-0.0278,-0.0286,-0.0269,-0.0225,-0.0153,0,0,0,0,0,-0.0202,-0.0244,-0.0232,-0.0175,-0.0137,-0.0099,-0.0107,-0.0132,-0.0195,-0.0208,-0.022,-0.0256,-0.0246,-0.0283,-0.0238,-0.0319,-0.0322,-0.0265,-0.0298,-0.0314,-0.0323,-0.0311,0,0,0,0,0,0,-0.0125,-0.0161,-0.0237,-0.0156,-0.0111,-0.0093,-0.0098,-0.0157,-0.0175,-0.0216,-0.0218,-0.0201,-0.0215,-0.0251,-0.022,-0.0224,-0.0226,-0.0271,-0.0269,-0.0309,-0.0317,-0.0324,-0.0315,0,0,0,0,0]},{"header":{"parameterUnit":"m.s-1","parameterCategory":2,"la1":30.2991,"la2":30.254,"lo1":-89.0895,"lo2":-89.0444,"dy":0.0017,"dx":0.0017,"nx":28,"ny":28,"refTime":"2024-06-13T09:00:00:Z","depth":"4","parameterNumber":3,"parameterNumberName":"V-component_of_CURRENTS"},"data":[0,0,0,0,0,0,0,0,0,0,0,0,0,0,0,0,0,0,0,0,0,0,0,0,0,0,0,0,0,0,0,0,0,0,0,0,0,0,0,0,0,0,0,0,0,0,0,0,0,0,0,0,0,0,0,0,0,0,0.0486,0.0487,0,0.0486,0.0486,0.0485,0.0538,0.054,0.0541,0.0543,0.0677,0.0678,0.068,0,0,0,0,0,0,0,0,0,0,0,0,0,0.0481,0.0481,0.0486,0.0487,0.0487,0.0486,0.0486,0.0485,0.0538,0.054,0.0542,0.0544,0.0676,0.0678,0.0681,0,0,0,0,0,0,0,0,0,0,0,0,0,0.0479,0.0481,0.0486,0.0515,0.0518,0.0486,0.0486,0.0485,0.0537,0.054,0.0542,0.0545,0.0675,0.0678,0.0681,0.0649,0,0,0.069,0.0691,0,0,0,0,0,0,0,0,0.0479,0.0479,0.0511,0.0513,0.0517,0.0517,0.0533,0.0548,0.0537,0.0527,0.0543,0.0546,0.0636,0.0642,0.063,0.0655,0.0661,0.069,0.0692,0.0693,0.0694,0,0,0,0,0,0,0,0.0479,0.0479,0.0483,0.0511,0.0514,0.0511,0.0514,0.0535,0.0567,0.0528,0.0532,0.0537,0.0638,0.0627,0.0634,0.0662,0.069,0.0693,0.0695,0.0696,0.081,0.0812,0,0,0,0,0,0,0.0486,0.0479,0.0483,0.0483,0.0507,0.0509,0.0512,0.0512,0.0564,0.0574,0.0534,0.0539,0.0621,0.063,0.0639,0.069,0.0693,0.0696,0.0698,0.0809,0.0811,0.0812,0,0,0,0,0,0,0.0485,0.0486,0.0483,0.0484,0.0484,0.0508,0.0506,0.0511,0.0558,0.0568,0.0581,0.0585,0.0623,0.0635,0.0703,0.0693,0.0697,0.07,0.0808,0.081,0.0811,0.0736,0,0,0,0,0,0,0.0485,0.0485,0.0498,0.0484,0.0485,0.0496,0.0504,0.0509,0.0554,0.0562,0.0615,0.0626,0.0626,0.0698,0.0706,0.0697,0.0702,0.0806,0.0809,0.0811,0.0737,0.0736,0.0734,0,0,0,0,0,0.0485,0.0495,0.0498,0.05,0.0498,0.0497,0.0497,0.0519,0.0555,0.0573,0.0616,0.0627,0.0719,0.0701,0.071,0.0702,0.0805,0.0808,0.0811,0.0738,0.0736,0.0734,0,0,0,0,0,0,0.0491,0.0501,0.0505,0.0516,0.0521,0.0509,0.053,0.055,0.0592,0.0632,0.0642,0.0655,0.0704,0.0731,0.0712,0.0748,0.0764,0.0769,0.0706,0.0705,0.0703,0.0668,0.0705,0,0,0,0,0,0.0497,0.052,0.0513,0.0527,0.0534,0.0542,0.0554,0.0581,0.0608,0.0632,0.067,0.071,0.0708,0.0736,0.0758,0.0783,0.079,0.079,0.0788,0.0786,0.0768,0.0752,0.0746,0.0821,0.0821,0.0821,0,0,0.0503,0.0513,0.0525,0.0532,0.054,0.0544,0.0557,0.0603,0.061,0.0641,0.0696,0.0716,0.0719,0.0732,0.0758,0.0763,0.0778,0.0789,0.0786,0.077,0.0754,0.0746,0.0739,0.0823,0.0823,0.0823,0,0,0.0518,0.0537,0.0556,0.0577,0.0613,0.0595,0.0623,0.0653,0.0672,0.071,0.0722,0.0745,0.0783,0.0757,0.0744,0.0759,0.077,0.0785,0.074,0.0725,0.0717,0.071,0.0736,0.0732,0.0781,0.0781,0.0781,0,0.0527,0.0552,0.0561,0.0593,0.0606,0.0623,0.064,0.0641,0.0697,0.0692,0.0739,0.0746,0.0772,0.0715,0.0713,0.0747,0.0757,0.0734,0.0716,0.0709,0.0703,0.0731,0.0727,0.0778,0.0778,0.0779,0.0779,0,0.0549,0.0592,0.0612,0.0638,0.0637,0.068,0.0667,0.0689,0.0713,0.0703,0.0706,0.0722,0.0717,0.0723,0.0712,0.0673,0.0703,0.071,0.0704,0.069,0.0723,0.072,0.0773,0.0774,0.0775,0.0776,0,0,0.0541,0.0608,0.0644,0.0653,0.0687,0.0681,0.0672,0.0636,0.062,0.0663,0.0627,0.0616,0.0636,0.0625,0.0629,0.0608,0.0586,0.0637,0.0637,0.0633,0.0579,0.0523,0.0516,0.058,0.0578,0.0577,0.0628,0,0.0567,0.0646,0.0656,0.0692,0.0703,0.0699,0.0665,0.0645,0.0623,0.06,0.0582,0.058,0.0591,0.0604,0.057,0.0576,0.0571,0.0573,0.062,0.0622,0.0547,0.0506,0.0572,0.0626,0.0626,0.0625,0.0625,0,0.0593,0.0641,0.0711,0.0699,0.0701,0.0717,0.0655,0.0639,0.0576,0.0564,0.0533,0.0528,0.0493,0.0529,0.0504,0.0504,0.0539,0.0549,0.0551,0.0513,0.0557,0.0643,0.062,0.062,0.0621,0.0621,0.0621,0,0.0588,0.0662,0.0719,0.0745,0.0739,0.0746,0.0725,0.0659,0.0622,0.0577,0.055,0.0496,0.0513,0.0494,0.0512,0.0514,0.0495,0.0511,0.0497,0.0497,0.0566,0.0573,0.0507,0.0507,0.0507,0.0507,0.0507,0,0.0586,0.0634,0.0751,0.0793,0.0804,0.0791,0.077,0.0727,0.0672,0.0591,0.0571,0.0482,0.0505,0.0482,0.0492,0.0471,0.0491,0.0469,0.0483,0.0544,0.0547,0.0566,0.0573,0.0509,0.0508,0.0508,0.0508,0,0.0549,0.0645,0.0713,0.0794,0.0814,0.0838,0.0824,0.0784,0.0746,0.0643,0.0637,0.0518,0.0453,0.0477,0.0468,0.0468,0.0453,0.0463,0.0547,0.0571,0.0479,0.0481,0.0427,0.0425,0.0423,0.0421,0.042,0,0.0524,0.0579,0.0754,0.0795,0.0849,0.0887,0.0882,0.0847,0.0776,0.0606,0.053,0.0467,0.0384,0.0348,0.035,0.0393,0.0404,0.0449,0.0422,0.0439,0.046,0.0465,0.047,0.0417,0.0417,0.0416,0.0416,0,0.0449,0.0576,0.0647,0.0775,0.0835,0.0852,0.0841,0.0771,0.0663,0.0654,0.0438,0.037,0.0294,0.0263,0.0347,0.0348,0.0425,0.0431,0.0435,0.041,0.0427,0.0451,0.0458,0.041,0.0411,0.0411,0.0412,0,0.0425,0.0467,0.0613,0.0701,0.0769,0.0756,0.0764,0.0672,0.0613,0.0438,0.0348,0.0253,0.0238,0.0232,0.0241,0.0297,0.0292,0.0335,0.0344,0.0351,0.0297,0.0306,0.024,0,0,0,0,0,0.0385,0.041,0.0488,0.0578,0.0651,0.0697,0.0675,0.0662,0.0559,0.0425,0.0392,0.0297,0.0241,0.0181,0.0225,0.0189,0.03,0.0239,0.0356,0.0376,0.0383,0.0323,0,0,0,0,0,0,0.0341,0.0401,0.0457,0.0467,0.05,0.0545,0.0538,0.0492,0.0409,0.0327,0.0308,0.0318,0.0285,0.0239,0.0228,0.023,0.0309,0.0235,0.0235,0.0372,0.0378,0.0384,0.0325,0,0,0,0,0]}]]